Weather Roundup
Issued by NWS

Home | Current Version | Previous Version | Graphics & Text | Print | Product List | Glossary Off
Versions: 1 2 3 4 5 6 7 8 9 10 11 12 13 14 15 16 17 18 19 20 21 22 23 24 25 26 27 28 29 30 31 32 33 34 35 36 37 38 39 40 41 42 43 44 45 46 47 48 49 50

000
NZUS93 KARX 261659
HRRWXR

CURRENT HOURLY OBSERVATIONS ACROSS
MUCH OF THE UPPER MISSISSIPPI VALLEY
NATIONAL WEATHER SERVICE LA CROSSE WI
1200 PM CDT TUE MAY 26 2015


...SOUTHEAST MINNESOTA...


CITY           SKY/WX    TMP DP  RH WIND       PRES   REMARKS
ROCHESTER      LGT RAIN  62  60  93 N12       29.77F
ROCHESTER/MAYO CLOUDY    61  61 100 NW3       29.76F
WINONA         LGT RAIN  61  59  94 E7        29.73F
AUSTIN         LGT RAIN  63  59  88 N8        29.75S
ALBERT LEA     LGT RAIN  63  61  94 NW5       29.76S
DODGE CENTER   LGT RAIN  63  61  94 N9        29.76F
PRESTON        LGT RAIN  60  58  94 N8        29.75F
OWATONNA       RAIN      61  57  88 NW5       29.76F
FARIBAULT      LGT RAIN  63  61  94 CALM      29.78S
$$

...ELSEWHERE IN MINNESOTA...


CITY           SKY/WX    TMP DP  RH WIND       PRES   REMARKS
MINNEAPOLIS    LGT RAIN  57  55  93 N8G20     29.79F
INTNL FALLS    MOSUNNY   69  51  52 S5        29.84F
DULUTH         PTSUNNY   60  53  77 E10       29.86F
RED WING       LGT RAIN  63  61  94 SE3       29.77F
REDWOOD FALLS  LGT RAIN  57  55  93 N7        29.81S FOG
MANKATO        CLOUDY    57  55  94 N8        29.78S
WORTHINGTON    CLOUDY    57  52  82 N8        29.81S
FAIRMONT       CLOUDY    57  54  88 N8        29.78S
$$

...SOUTHWEST WISCONSIN...


CITY           SKY/WX    TMP DP  RH WIND       PRES   REMARKS
LA CROSSE      LGT RAIN  65  61  87 NE8       29.72F
PRAIRIE DU CHI LGT RAIN  63  62  94 CALM      29.71F
BOSCOBEL       RAIN      66  64  93 NE7       29.72F FOG
LONE ROCK      NOT AVBL
PLATTEVILLE    CLOUDY    67  66  97 SE9       29.72F
FORT MC COY    LGT RAIN  62  60  94 CALM      29.80F
VIROQUA        CLOUDY    62  62 100 N10       29.77F
WIS DELLS      LGT RAIN  67  65  92 NE7       29.76F
$$

...ELSEWHERE IN WISCONSIN...


CITY           SKY/WX    TMP DP  RH WIND       PRES   REMARKS
MILWAUKEE      CLOUDY    64  60  87 SE16      29.83F FOG
MADISON        RAIN      68  65  90 SE14      29.76F FOG
GREEN BAY      CLOUDY    77  69  76 S14       29.80F
EAU CLAIRE     NOT AVBL
BLACK RVR FLS  RAIN      64  64 100 CALM      29.79F
MEDFORD        CLOUDY    67  60  77 CALM      29.81F
WAUSAU         CLOUDY    73  60  63 NW6       29.79S
WIS RAPIDS     RAIN      65  61  87 W10G25    29.85R FOG
MARSHFIELD     LGT RAIN  65  60  84 SW8       29.83R
RICE LAKE      CLOUDY    65  58  79 N5        29.81S
$$

...NORTHEAST IOWA...


CITY           SKY/WX    TMP DP  RH WIND       PRES   REMARKS
DECORAH        CLOUDY    61  61 100 N8G15     29.72F
MASON CITY     LGT RAIN  63  60  90 W14       29.77R
CHARLES CITY   HVY RAIN  63  63 100 NE15      29.74F VSB 1
OELWEIN        HVY RAIN  63  61  94 N7        29.72S
$$

...ELSEWHERE IN IOWA...


CITY           SKY/WX    TMP DP  RH WIND       PRES   REMARKS
DES MOINES     LGT RAIN  64  60  87 SW8       29.80R FOG
IOWA CITY      LGT RAIN  70  65  84 S9        29.70F
FORT DODGE     CLOUDY    61  57  88 CALM      29.80R
$$

...NORTHERN ILLINOIS...


CITY           SKY/WX    TMP DP  RH WIND       PRES   REMARKS
CHICAGO-OHARE  CLOUDY    72  65  78 S16G28    29.81F
CHICAGO-MIDWAY CLOUDY    76  66  71 SE18G24   29.82F
MOLINE         PTSUNNY   73  63  70 SW20G30   29.73F
ROCKFORD       LGT RAIN  70  65  84 S10       29.75F
PEORIA         CLOUDY    73  64  73 SW14      29.82R
$$

NOTE: "FAIR" INDICATES FEW OR NO CLOUDS BELOW 12,000 FEET WITH NO
SIGNIFICANT WEATHER AND/OR OBSTRUCTIONS TO VISIBILITY. WIND
SPEEDS ARE IN MILES-PER-HOUR.



USA.gov is the U.S. government's official web portal to all federal, state and local government web resources and services.